Location: Bidwell Hollow
(37.7387°N, 90.1707°W)
Time: 09:58:22
(UTC+00:00)

Transit 2A - Pass Details

Date: 15 May 2026
Orbit: 596 x 948 km, 66.7° (Epoch: 10 June)

Event Time Altitude Azimuth Distance (km) Brightness Sun altitude
Rises 20:15:57 0° 176° (S) 3,599 9.6 54.5°
Reaches altitude 10° 20:18:50 10° 166° (SSE) 2,648 9.0 54.0°
Maximum altitude 20:24:03 29° 109° (ESE) 1,620 7.7 53.0°
Drops below altitude 10° 20:29:04 10° 51° (NE) 2,546 8.5 52.1°
Sets 20:31:47 0° 41° (NE) 3,438 9.1 51.6°
